Time,TemperatureF,DewpointF,PressureIn,WindDirection,WindDirectionDegrees,WindSpeedMPH,WindSpeedGustMPH,Humidity,HourlyPrecipIn,Conditions,Clouds,dailyrainin,SolarRadiationWatts/m^2,SoftwareType,DateUTC
2013-04-25 00:21:00,59.0,57.0,-100.00,North,5,7.0,15.0,93,0.00,,,0.50,0.000000,,2013-04-25 05:21:00,
2013-04-25 00:32:00,59.0,57.0,-100.00,North,5,7.0,15.0,93,0.00,,,0.50,0.000000,,2013-04-25 05:32:00,
2013-04-25 00:42:00,59.0,57.0,-100.00,North,5,7.0,15.0,93,0.00,,,0.50,0.000000,,2013-04-25 05:42:00,
2013-04-25 00:50:00,58.0,56.0,-100.00,NNE,21,7.0,15.0,93,0.00,,,0.50,0.000000,,2013-04-25 05:50:00,
2013-04-25 01:11:00,58.0,56.0,-100.00,NNE,21,7.0,15.0,93,0.00,,,0.50,0.000000,,2013-04-25 06:11:00,
2013-04-25 01:22:00,58.0,56.0,-100.00,NNE,21,7.0,15.0,93,0.00,,,0.50,0.000000,,2013-04-25 06:22:00,
2013-04-25 01:32:00,58.0,56.0,-100.00,NNE,21,7.0,15.0,93,0.00,,,0.50,0.000000,,2013-04-25 06:32:00,
2013-04-25 01:42:00,58.0,56.0,-100.00,NNE,21,7.0,15.0,93,0.00,,,0.50,0.000000,,2013-04-25 06:42:00,
2013-04-25 01:50:00,56.0,54.0,-100.00,NNE,24,7.0,15.0,94,0.00,,,0.50,0.000000,,2013-04-25 06:50:00,
2013-04-25 02:12:00,56.0,54.0,-100.00,NNE,24,7.0,15.0,94,0.00,,,0.50,0.000000,,2013-04-25 07:12:00,
2013-04-25 02:22:00,56.0,54.0,-100.00,NNE,24,7.0,15.0,94,0.00,,,0.50,0.000000,,2013-04-25 07:22:00,
2013-04-25 02:32:00,56.0,54.0,-100.00,NNE,24,7.0,15.0,94,0.00,,,0.50,0.000000,,2013-04-25 07:32:00,
2013-04-25 02:42:00,56.0,54.0,-100.00,NNE,24,7.0,15.0,94,0.00,,,0.50,0.000000,,2013-04-25 07:42:00,
2013-04-25 02:50:00,55.0,53.0,-100.00,NNE,13,8.0,15.0,94,0.00,,,0.50,0.000000,,2013-04-25 07:50:00,
2013-04-25 03:21:00,55.0,53.0,-100.00,NNE,13,8.0,15.0,94,0.00,,,0.50,0.000000,,2013-04-25 08:21:00,
2013-04-25 03:31:00,55.0,53.0,-100.00,NNE,13,8.0,15.0,94,0.00,,,0.50,0.000000,,2013-04-25 08:31:00,
2013-04-25 03:42:00,55.0,53.0,-100.00,NNE,13,8.0,15.0,94,0.00,,,0.50,0.000000,,2013-04-25 08:42:00,
2013-04-25 03:50:00,54.0,52.0,-100.00,NNE,21,7.0,16.0,92,0.00,,,0.50,0.000000,,2013-04-25 08:50:00,
2013-04-25 04:21:00,54.0,52.0,-100.00,NNE,21,7.0,16.0,92,0.00,,,0.50,0.000000,,2013-04-25 09:21:00,
2013-04-25 04:33:00,54.0,52.0,-100.00,NNE,21,7.0,16.0,92,0.00,,,0.50,0.000000,,2013-04-25 09:33:00,
2013-04-25 04:42:00,54.0,52.0,-100.00,NNE,21,7.0,16.0,92,0.00,,,0.50,0.000000,,2013-04-25 09:42:00,
2013-04-25 04:50:00,54.0,51.0,-100.00,NNE,17,7.0,17.0,91,0.00,,,0.50,0.000000,,2013-04-25 09:50:00,
2013-04-25 05:12:00,54.0,51.0,-100.00,NNE,17,7.0,17.0,91,0.00,,,0.50,0.000000,,2013-04-25 10:12:00,
2013-04-25 05:22:00,54.0,51.0,-100.00,NNE,17,7.0,17.0,91,0.00,,,0.50,0.000000,,2013-04-25 10:22:00,
2013-04-25 05:32:00,54.0,51.0,-100.00,NNE,17,7.0,17.0,91,0.00,,,0.50,0.000000,,2013-04-25 10:32:00,
2013-04-25 05:42:00,54.0,51.0,-100.00,NNE,17,7.0,17.0,91,0.00,,,0.50,0.000000,,2013-04-25 10:42:00,
2013-04-25 05:50:00,54.0,51.0,-100.00,NNE,32,9.0,16.0,90,0.00,,,0.50,0.000000,,2013-04-25 10:50:00,
2013-04-25 06:22:00,54.0,51.0,-100.00,NNE,32,9.0,16.0,90,0.00,,,0.50,0.000000,,2013-04-25 11:22:00,
2013-04-25 06:32:00,54.0,51.0,-100.00,NNE,32,9.0,16.0,90,0.00,,,0.50,0.000000,,2013-04-25 11:32:00,
2013-04-25 06:42:00,54.0,51.0,-100.00,NNE,32,9.0,16.0,90,0.00,,,0.50,0.000000,,2013-04-25 11:42:00,
2013-04-25 06:50:00,54.0,51.0,-100.00,NNE,17,8.0,16.0,90,0.00,,,0.50,3.000000,,2013-04-25 11:50:00,
2013-04-25 07:12:00,54.0,51.0,-100.00,NNE,17,8.0,16.0,90,0.00,,,0.50,3.000000,,2013-04-25 12:12:00,
2013-04-25 07:21:00,54.0,51.0,-100.00,NNE,17,8.0,16.0,90,0.00,,,0.50,3.000000,,2013-04-25 12:21:00,
2013-04-25 07:32:00,54.0,51.0,-100.00,NNE,17,8.0,16.0,90,0.00,,,0.50,3.000000,,2013-04-25 12:32:00,
2013-04-25 07:42:00,54.0,51.0,-100.00,NNE,17,8.0,16.0,90,0.00,,,0.50,3.000000,,2013-04-25 12:42:00,
2013-04-25 07:50:00,54.0,51.0,-100.00,NNE,29,7.0,17.0,89,0.00,,,0.50,35.000000,,2013-04-25 12:50:00,
2013-04-25 08:21:00,54.0,51.0,-100.00,NNE,29,7.0,17.0,89,0.00,,,0.50,35.000000,,2013-04-25 13:21:00,
2013-04-25 08:32:00,54.0,51.0,-100.00,NNE,29,7.0,17.0,89,0.00,,,0.50,35.000000,,2013-04-25 13:32:00,
2013-04-25 08:42:00,54.0,51.0,-100.00,NNE,29,7.0,17.0,89,0.00,,,0.50,35.000000,,2013-04-25 13:42:00,
2013-04-25 08:50:00,54.0,51.0,-100.00,NE,39,7.0,13.0,88,0.00,,,0.50,102.000000,,2013-04-25 13:50:00,
2013-04-25 09:21:00,54.0,51.0,-100.00,NE,39,7.0,13.0,88,0.00,,,0.50,102.000000,,2013-04-25 14:21:00,
2013-04-25 09:32:00,54.0,51.0,-100.00,NE,39,7.0,13.0,88,0.00,,,0.50,102.000000,,2013-04-25 14:32:00,
2013-04-25 09:42:00,54.0,51.0,-100.00,NE,39,7.0,13.0,88,0.00,,,0.50,102.000000,,2013-04-25 14:42:00,
2013-04-25 09:50:00,56.0,51.0,-100.00,NNE,18,10.0,17.0,82,0.00,,,0.50,291.000000,,2013-04-25 14:50:00,
2013-04-25 10:21:00,56.0,51.0,-100.00,NNE,18,10.0,17.0,82,0.00,,,0.50,291.000000,,2013-04-25 15:21:00,
2013-04-25 10:33:00,56.0,51.0,-100.00,NNE,18,10.0,17.0,82,0.00,,,0.50,291.000000,,2013-04-25 15:33:00,
2013-04-25 10:42:00,56.0,51.0,-100.00,NNE,18,10.0,17.0,82,0.00,,,0.50,291.000000,,2013-04-25 15:42:00,
2013-04-25 10:50:00,61.0,53.0,-100.00,NNE,28,7.0,17.0,74,0.00,,,-99.99,654.000000,,2013-04-25 15:50:00,
2013-04-25 11:13:00,61.0,53.0,-100.00,NNE,28,7.0,17.0,74,0.00,,,-99.99,654.000000,,2013-04-25 16:13:00,
2013-04-25 11:24:00,61.0,53.0,-100.00,NNE,28,7.0,17.0,74,0.00,,,-99.99,654.000000,,2013-04-25 16:24:00,
2013-04-25 11:32:00,61.0,53.0,-100.00,NNE,28,7.0,17.0,74,0.00,,,-99.99,654.000000,,2013-04-25 16:32:00,
2013-04-25 11:42:00,61.0,53.0,-100.00,NNE,28,7.0,17.0,74,0.00,,,-99.99,654.000000,,2013-04-25 16:42:00,
2013-04-25 11:50:00,65.0,54.0,-100.00,NE,44,7.0,14.0,68,0.00,,,0.40,873.000000,,2013-04-25 16:50:00,
2013-04-25 12:11:00,65.0,54.0,-100.00,NE,44,7.0,14.0,68,0.00,,,0.40,873.000000,,2013-04-25 17:11:00,
2013-04-25 12:22:00,65.0,54.0,-100.00,NE,44,7.0,14.0,68,0.00,,,0.40,873.000000,,2013-04-25 17:22:00,
2013-04-25 12:32:00,65.0,54.0,-100.00,NE,44,7.0,14.0,68,0.00,,,0.40,873.000000,,2013-04-25 17:32:00,
2013-04-25 12:42:00,65.0,54.0,-100.00,NE,44,7.0,14.0,68,0.00,,,0.40,873.000000,,2013-04-25 17:42:00,
2013-04-25 12:50:00,69.0,56.0,-100.00,North,355,5.0,12.0,64,0.00,,,0.15,940.000000,,2013-04-25 17:50:00,
2013-04-25 13:11:00,69.0,56.0,-100.00,North,355,5.0,12.0,64,0.00,,,0.15,940.000000,,2013-04-25 18:11:00,
2013-04-25 13:22:00,69.0,56.0,-100.00,North,355,5.0,12.0,64,0.00,,,0.15,940.000000,,2013-04-25 18:22:00,
2013-04-25 13:32:00,69.0,56.0,-100.00,North,355,5.0,12.0,64,0.00,,,0.15,940.000000,,2013-04-25 18:32:00,
2013-04-25 13:42:00,69.0,56.0,-100.00,North,355,5.0,12.0,64,0.00,,,0.15,940.000000,,2013-04-25 18:42:00,
2013-04-25 13:50:00,72.0,57.0,-100.00,NNW,327,6.0,13.0,59,0.00,,,0.11,934.000000,,2013-04-25 18:50:00,
2013-04-25 14:12:00,72.0,57.0,-100.00,NNW,327,6.0,13.0,59,0.00,,,0.11,934.000000,,2013-04-25 19:12:00,
2013-04-25 14:21:00,72.0,57.0,-100.00,NNW,327,6.0,13.0,59,0.00,,,0.11,934.000000,,2013-04-25 19:21:00,
2013-04-25 14:31:00,72.0,57.0,-100.00,NNW,327,6.0,13.0,59,0.00,,,0.11,934.000000,,2013-04-25 19:31:00,
2013-04-25 14:42:00,72.0,57.0,-100.00,NNW,327,6.0,13.0,59,0.00,,,0.11,934.000000,,2013-04-25 19:42:00,
2013-04-25 14:50:00,73.0,56.0,-100.00,North,1,6.0,14.0,55,0.00,,,0.11,854.000000,,2013-04-25 19:50:00,
2013-04-25 15:22:00,73.0,56.0,-100.00,North,1,6.0,14.0,55,0.00,,,0.11,854.000000,,2013-04-25 20:22:00,
2013-04-25 15:32:00,73.0,56.0,-100.00,North,1,6.0,14.0,55,0.00,,,0.11,854.000000,,2013-04-25 20:32:00,
2013-04-25 15:42:00,73.0,56.0,-100.00,North,1,6.0,14.0,55,0.00,,,0.11,854.000000,,2013-04-25 20:42:00,
2013-04-25 15:50:00,75.0,55.0,-100.00,North,10,6.0,13.0,50,0.00,,,0.07,756.000000,,2013-04-25 20:50:00,
2013-04-25 16:11:00,75.0,55.0,-100.00,North,10,6.0,13.0,50,0.00,,,0.07,756.000000,,2013-04-25 21:11:00,
2013-04-25 16:22:00,75.0,55.0,-100.00,North,10,6.0,13.0,50,0.00,,,0.07,756.000000,,2013-04-25 21:22:00,
2013-04-25 16:33:00,75.0,55.0,-100.00,North,10,6.0,13.0,50,0.00,,,0.07,756.000000,,2013-04-25 21:33:00,
2013-04-25 16:42:00,75.0,55.0,-100.00,North,10,6.0,13.0,50,0.00,,,0.07,756.000000,,2013-04-25 21:42:00,
2013-04-25 16:50:00,75.0,54.0,-100.00,NNE,23,7.0,14.0,48,0.00,,,0.00,584.000000,,2013-04-25 21:50:00,
2013-04-25 17:22:00,75.0,54.0,-100.00,NNE,23,7.0,14.0,48,0.00,,,0.00,584.000000,,2013-04-25 22:22:00,
2013-04-25 17:33:00,75.0,54.0,-100.00,NNE,23,7.0,14.0,48,0.00,,,0.00,584.000000,,2013-04-25 22:33:00,
2013-04-25 17:42:00,75.0,54.0,-100.00,NNE,23,7.0,14.0,48,0.00,,,0.00,584.000000,,2013-04-25 22:42:00,
2013-04-25 17:50:00,72.0,51.0,-100.00,NE,36,8.0,13.0,47,0.00,,,0.00,374.000000,,2013-04-25 22:50:00,
2013-04-25 18:12:00,72.0,51.0,-100.00,NE,36,8.0,13.0,47,0.00,,,0.00,374.000000,,2013-04-25 23:12:00,
2013-04-25 18:22:00,72.0,51.0,-100.00,NE,36,8.0,13.0,47,0.00,,,0.00,374.000000,,2013-04-25 23:22:00,
2013-04-25 18:32:00,72.0,51.0,-100.00,NE,36,8.0,13.0,47,0.00,,,0.00,374.000000,,2013-04-25 23:32:00,
2013-04-25 18:42:00,72.0,51.0,-100.00,NE,36,8.0,13.0,47,0.00,,,0.00,374.000000,,2013-04-25 23:42:00,
2013-04-25 18:50:00,70.0,49.0,-100.00,NE,44,6.0,14.0,47,0.00,,,0.00,174.000000,,2013-04-25 23:50:00,
2013-04-25 19:21:00,70.0,49.0,-100.00,NE,44,6.0,14.0,47,0.00,,,0.00,174.000000,,2013-04-26 00:21:00,
2013-04-25 19:32:00,70.0,49.0,-100.00,NE,44,6.0,14.0,47,0.00,,,0.00,174.000000,,2013-04-26 00:32:00,
2013-04-25 19:41:00,70.0,49.0,-100.00,NE,44,6.0,14.0,47,0.00,,,0.00,174.000000,,2013-04-26 00:41:00,
2013-04-25 19:50:00,66.0,45.0,-100.00,NNE,27,3.0,11.0,47,0.00,,,0.00,22.000000,,2013-04-26 00:50:00,
2013-04-25 20:11:00,66.0,45.0,-100.00,NNE,27,3.0,11.0,47,0.00,,,0.00,22.000000,,2013-04-26 01:11:00,
2013-04-25 20:21:00,66.0,45.0,-100.00,NNE,27,3.0,11.0,47,0.00,,,0.00,22.000000,,2013-04-26 01:21:00,
2013-04-25 20:31:00,66.0,45.0,-100.00,NNE,27,3.0,11.0,47,0.00,,,0.00,22.000000,,2013-04-26 01:31:00,
2013-04-25 20:42:00,66.0,45.0,-100.00,NNE,27,3.0,11.0,47,0.00,,,0.00,22.000000,,2013-04-26 01:42:00,
2013-04-25 20:50:00,63.0,46.0,-100.00,NNE,19,2.0,7.0,53,0.00,,,0.00,0.000000,,2013-04-26 01:50:00,
2013-04-25 21:11:00,63.0,46.0,-100.00,NNE,19,2.0,7.0,53,0.00,,,0.00,0.000000,,2013-04-26 02:11:00,
2013-04-25 21:21:00,63.0,46.0,-100.00,NNE,19,2.0,7.0,53,0.00,,,0.00,0.000000,,2013-04-26 02:21:00,
2013-04-25 21:32:00,63.0,46.0,-100.00,NNE,19,2.0,7.0,53,0.00,,,0.00,0.000000,,2013-04-26 02:32:00,
2013-04-25 21:42:00,63.0,46.0,-100.00,NNE,19,2.0,7.0,53,0.00,,,0.00,0.000000,,2013-04-26 02:42:00,
2013-04-25 21:50:00,61.0,46.0,-100.00,NNE,28,3.0,5.0,57,0.00,,,0.00,0.000000,,2013-04-26 02:50:00,
2013-04-25 22:21:00,61.0,46.0,-100.00,NNE,28,3.0,5.0,57,0.00,,,0.00,0.000000,,2013-04-26 03:21:00,
2013-04-25 22:33:00,61.0,46.0,-100.00,NNE,28,3.0,5.0,57,0.00,,,0.00,0.000000,,2013-04-26 03:33:00,
2013-04-25 22:43:00,61.0,46.0,-100.00,NNE,28,3.0,5.0,57,0.00,,,0.00,0.000000,,2013-04-26 03:43:00,
2013-04-25 22:50:00,60.0,47.0,-100.00,NE,34,3.0,6.0,61,0.00,,,0.00,0.000000,,2013-04-26 03:50:00,
2013-04-25 23:12:00,60.0,47.0,-100.00,NE,34,3.0,6.0,61,0.00,,,0.00,0.000000,,2013-04-26 04:12:00,
2013-04-25 23:23:00,60.0,47.0,-100.00,NE,34,3.0,6.0,61,0.00,,,0.00,0.000000,,2013-04-26 04:23:00,
2013-04-25 23:32:00,60.0,47.0,-100.00,NE,34,3.0,6.0,61,0.00,,,0.00,0.000000,,2013-04-26 04:32:00,
2013-04-25 23:43:00,60.0,47.0,-100.00,NE,34,3.0,6.0,61,0.00,,,0.00,0.000000,,2013-04-26 04:43:00,
2013-04-25 23:50:00,59.0,47.0,-100.00,NE,39,3.0,6.0,64,0.00,,,0.00,0.000000,,2013-04-26 04:50:00,